AirNav   Phillips 66 Aviation Fuel
 
 683 users online  

54WI Flyplassen Airport
Woodville, Wisconsin, USA

GOING TO WOODVILLE?


FAA INFORMATION EFFECTIVE 24 MAY 2018

Location

FAA Identifier: 54WI
Lat/Long: 45-00-29.8710N / 092-16-30.6780W
45-00.497850N / 092-16.511300W
45.0082975 / -92.2751883
(estimated)
Elevation: 1300 ft. / 396 m (estimated)
Variation: 02E (1985)
From city: 1 mile N of WOODVILLE, WI
Time zone: UTC -5 (UTC -6 during Standard Time)
Zip code: 54028

Airport Operations

Airport use: Private use. Permission required prior to landing
Activation date: 10/1979
Control tower: no
ARTCC: MINNEAPOLIS CENTER
FSS: GREEN BAY FLIGHT SERVICE STATION
Attendance: UNATNDD
Wind indicator: yes
Segmented circle: no

Airport Communications

WX AWOS-3 at RNH (14 nm NW): 120.0 (715-246-3202)
WX AWOS-3 at LUM (19 nm E): 118.025 (715-235-5342)

Nearby radio navigation aids

VOR radial/distance  VOR name  Freq  Var
EAUr277/34.5EAU CLAIRE VORTAC112.9004E

 
NDB name  Hdg/Dist  Freq  Var  ID
HOPEY071/29.540003EPPI .--. .--. ..

Airport Services

Runway Information

Runway 18/36

Dimensions: 1425 x 75 ft. / 434 x 23 m
Surface: turf
RUNWAY 18  RUNWAY 36
Traffic pattern: leftleft

Airport Ownership and Management from official FAA records

Ownership: Privately-owned
Owner: THOMAS L OLSON
733 250TH ST
WOODVILLE, WI 54028
Phone 715-698-3433
Manager: THOMAS L OLSON
733 250TH ST
WOODVILLE, WI 54028
Phone 715-698-3433

Airport Operational Statistics

Aircraft based on the field: 1
Single engine airplanes: 1
    

Instrument Procedures

There are no published instrument procedures at 54WI.

Some nearby airports with instrument procedures:

3T3 - Boyceville Municipal Airport (11 nm E)
KRNH - New Richmond Regional Airport (14 nm NW)
KAHH - Amery Municipal Airport (17 nm N)
KLUM - Menomonie Municipal Airport-Score Field (19 nm E)
21D - Lake Elmo Airport (25 nm W)
 
Loc | Ops | Rwys | IFR | FBO | Links
Com | Nav | Svcs | Stats | Notes

AirNav Hotels Sweepstakes
 
Area around 54WI (Flyplassen Airport)
 
Road maps at: MapQuest Bing Google
 
Aerial photo
No photo
 
Sectional chart

 
Airport distance calculator
Flying to Flyplassen Airport? Find the distance to fly.

From to 54WI

Sunrise and sunset
Times for 27-May-2018
 Local
(UTC-5)
 Zulu
(UTC)
Morning civil twilight04:5409:54
Sunrise05:3010:30
Sunset20:4301:43
Evening civil twilight21:1902:19

Current date and time
Zulu (UTC)  28-May-2018 03:42:55
Local (UTC-5)  27-May-2018 22:42:55
 
METAR
KRNH 
14nm NW 
280315Z AUTO 00000KT 10SM CLR 26/13 A2983 RMK AO2 T02610132
KLUM 
19nm E 
280315Z AUTO 00000KT 10SM CLR 23/16 A2984 RMK AO2 T02320164
KOEO 
25nm NW 
280315Z AUTO 16008KT 10SM CLR 27/15 A2984 RMK AO2 T02660147
K21D 
25nm W 
280315Z AUTO 15006KT 10SM CLR 27/15 A2982 RMK AO2
TAF
KRNH 
14nm NW 
272039Z 2721/2818 10008KT P6SM SCT250 FM281300 25006KT P6SM BKN250
NOTAMs
Click for the latest NOTAMs
NOTAMs are issued by the DoD/FAA and will open in a separate window not controlled by AirNav.

 

 
 

Would you like to see your business listed on this page?

 If your business provides an interesting product or service to pilots, flight crews, aircraft, or users of the Flyplassen Airport, you should consider listing it here.  To start the listing process, click on the button below
 
Add a business
 

Other Pages about Flyplassen Airport

Update a link
 
Copyright © AirNav, LLC. All rights reserved. Privacy Policy  Contact